[[{"header":{"parameterUnit":"m.s-1","parameterCategory":1,"la1":30.2991,"la2":30.254,"lo1":-89.0895,"lo2":-89.0444,"dy":0.0017,"dx":0.0017,"nx":28,"ny":28,"refTime":"2024-02-03T03:00:00:Z","depth":0,"parameterNumber":2,"parameterNumberName":"U-component_of_WINDS"},"data":[0,0,0,0,0,0,0,0,0,0,0,0,0,0,0,0,0,0,0,0,0,0,0,0,0,0,0,0,0,0,0,0,0,0,0,0,0,0,0,0,0,0,0,0,0,0,0,0,0,0,0,0,0,0,0,0,0,0,-8.706,-8.7067,0,-8.7711,-8.7719,-8.7726,-8.7807,-8.7801,-8.7794,-8.7788,-8.8453,-8.8476,-8.85,0,0,0,0,0,0,0,0,0,0,0,0,0,-8.5883,-8.5904,-8.7059,-8.7067,-8.7075,-8.771,-8.7719,-8.7728,-8.7808,-8.78,-8.7793,-8.7786,-8.8446,-8.8474,-8.8502,0,0,0,0,0,0,0,0,0,0,0,0,0,-8.645,-8.5911,-8.7057,-8.7192,-8.721,-8.7708,-8.7719,-8.773,-8.781,-8.78,-8.7791,-8.7782,-8.8436,-8.8471,-8.8506,-8.8914,0,0,-8.8614,-8.8629,0,0,0,0,0,0,0,0,-8.6418,-8.6493,-8.7164,-8.7184,-8.7205,-8.7668,-8.7548,-8.8127,-8.7812,-8.7582,-8.7788,-8.7777,-8.82,-8.8254,-8.8397,-8.8945,-8.8973,-8.8617,-8.8638,-8.8654,-8.8664,0,0,0,0,0,0,0,-8.6378,-8.6466,-8.7317,-8.7174,-8.7199,-8.7219,-8.729,-8.7658,-8.7936,-8.7602,-8.7609,-8.7685,-8.8209,-8.8363,-8.8413,-8.8983,-8.8616,-8.8647,-8.8669,-8.8683,-8.99,-8.9911,0,0,0,0,0,0,-8.6315,-8.6432,-8.7296,-8.7336,-8.678,-8.7248,-8.7327,-8.7529,-8.7932,-8.7985,-8.7693,-8.7686,-8.8307,-8.8372,-8.8437,-8.8942,-8.8653,-8.8687,-8.8707,-8.9889,-8.9903,-8.9915,0,0,0,0,0,0,-8.6289,-8.6391,-8.727,-8.6887,-8.7,-8.7279,-8.7505,-8.7547,-8.7701,-8.8001,-8.8051,-8.7799,-8.8302,-8.8387,-8.8795,-8.8966,-8.8702,-8.8735,-8.9876,-8.9894,-8.9909,-8.9955,0,0,0,0,0,0,-8.6255,-8.6381,-8.6539,-8.689,-8.702,-8.7618,-8.7516,-8.7567,-8.7762,-8.776,-8.8114,-8.8163,-8.8301,-8.8742,-8.883,-8.901,-8.8762,-8.9862,-8.9884,-8.9904,-8.9939,-8.9971,-8.9998,0,0,0,0,0,-8.6213,-8.6525,-8.6547,-8.665,-8.7224,-8.7627,-8.7702,-8.7855,-8.7775,-8.7936,-8.813,-8.8152,-8.8933,-8.8783,-8.8883,-8.9076,-8.9852,-8.9878,-8.9902,-8.9926,-8.9965,-8.9997,0,0,0,0,0,0,-8.6186,-8.6573,-8.6602,-8.7037,-8.7299,-8.764,-8.7848,-8.7891,-8.818,-8.8166,-8.8343,-8.8423,-8.8823,-8.8991,-8.8816,-8.9493,-8.9385,-8.9431,-8.9369,-8.9408,-8.9437,-8.9388,-8.8792,0,0,0,0,0,-8.623,-8.6527,-8.6849,-8.7202,-8.7332,-8.7567,-8.7749,-8.7845,-8.8122,-8.8233,-8.8457,-8.8725,-8.9031,-8.9229,-8.9527,-8.9964,-9.0043,-9.0146,-9.0176,-9.0198,-9.0236,-9.0481,-9.0531,-8.9997,-8.9997,-8.9996,0,0,-8.6326,-8.6574,-8.675,-8.7203,-8.7417,-8.772,-8.766,-8.7982,-8.8208,-8.8282,-8.8682,-8.8855,-8.9166,-8.959,-8.9789,-8.9743,-9.0401,-9.023,-9.0246,-9.0272,-9.0512,-9.0562,-9.0607,-9.0014,-9.0011,-9.0008,0,0,-8.6654,-8.6872,-8.719,-8.7407,-8.7733,-8.7888,-8.7964,-8.8301,-8.8419,-8.8823,-8.8885,-8.9157,-8.968,-8.99,-9.008,-9.0494,-9.0526,-9.0587,-9.074,-9.0977,-9.1019,-9.1057,-9.1205,-9.1256,-9.0623,-9.0623,-9.0624,0,-8.6731,-8.719,-8.7348,-8.767,-8.7868,-8.795,-8.8274,-8.8476,-8.8882,-8.9017,-8.896,-8.962,-8.9835,-9.0313,-9.0414,-9.0557,-9.065,-9.0547,-9.1,-9.104,-9.1078,-9.1221,-9.1277,-9.0629,-9.0628,-9.0628,-9.0627,0,-8.7269,-8.7586,-8.7804,-8.8196,-8.8419,-8.8739,-8.8946,-8.9153,-8.923,-8.939,-8.9801,-9.0063,-9.0416,-9.0537,-9.0614,-9.1027,-9.0988,-9.0964,-9.0859,-9.1131,-9.1269,-9.1325,-9.0636,-9.0634,-9.0633,-9.0631,0,0,-8.7596,-8.8073,-8.8151,-8.833,-8.8697,-8.8945,-8.927,-8.9618,-8.9791,-9.0069,-9.0346,-9.0788,-9.0769,-9.0973,-9.1076,-9.1284,-9.1597,-9.1235,-9.1245,-9.1293,-9.2068,-9.2084,-9.2145,-9.162,-9.1631,-9.164,-9.2042,0,-8.7966,-8.8549,-8.8702,-8.9197,-8.9493,-8.9577,-8.9861,-9.0116,-9.0276,-9.0549,-9.0725,-9.1036,-9.0986,-9.1111,-9.132,-9.1514,-9.1754,-9.1487,-9.1879,-9.1891,-9.1799,-9.2218,-9.2236,-9.2602,-9.2097,-9.2106,-9.2113,0,-8.8476,-8.8766,-8.929,-8.9621,-8.9751,-9.0003,-9.0335,-9.0596,-9.0887,-9.0989,-9.1219,-9.1303,-9.1645,-9.1522,-9.1997,-9.1811,-9.1981,-9.2101,-9.2119,-9.2161,-9.2018,-9.2271,-9.2723,-9.2778,-9.2199,-9.2192,-9.2186,0,-8.8661,-8.9184,-8.9566,-8.9717,-9.0112,-9.0287,-9.046,-9.0743,-9.0942,-9.1232,-9.1364,-9.1688,-9.1866,-9.2116,-9.2286,-9.2181,-9.2747,-9.2637,-9.284,-9.2836,-9.2955,-9.2945,-9.3441,-9.3064,-9.3063,-9.3062,-9.3061,0,-8.9059,-8.9376,-8.9655,-8.989,-9.0249,-9.0423,-9.0773,-9.0948,-9.12,-9.147,-9.1563,-9.1814,-9.2023,-9.2304,-9.2439,-9.2811,-9.2891,-9.2982,-9.3014,-9.2975,-9.2963,-9.3088,-9.3067,-9.3077,-9.3074,-9.3071,-9.3069,0,-8.9326,-8.9526,-8.9948,-9.0289,-9.0382,-9.0631,-9.0923,-9.1154,-9.1317,-9.1659,-9.1749,-9.2005,-9.234,-9.2535,-9.2956,-9.3047,-9.3461,-9.3481,-9.3362,-9.3377,-9.3569,-9.3548,-9.4162,-9.4252,-9.3814,-9.3818,-9.3822,0,-8.9566,-8.9813,-9.0181,-9.037,-9.0546,-9.0848,-9.1053,-9.1234,-9.1444,-9.1796,-9.1985,-9.2326,-9.2609,-9.314,-9.3363,-9.3687,-9.3716,-9.3909,-9.3765,-9.3717,-9.3719,-9.3702,-9.3728,-9.3932,-9.3936,-9.3939,-9.3942,0,-8.9971,-9.0058,-9.0351,-9.068,-9.0922,-9.1189,-9.1454,-9.1603,-9.1829,-9.206,-9.2404,-9.2623,-9.3056,-9.3393,-9.3736,-9.3913,-9.3967,-9.3986,-9.405,-9.4012,-9.3933,-9.3979,-9.3429,-9.3971,-9.3968,-9.3966,-9.3964,-9.3963,-9.0233,-9.0457,-9.0752,-9.1075,-9.1295,-9.1541,-9.1776,-9.197,-9.2261,-9.2628,-9.2717,-9.3079,-9.3367,-9.3834,-9.402,-9.4306,-9.4273,-9.4365,-9.4389,-9.4409,-9.4415,-9.3888,-9.4369,-9.4368,-9.4367,-9.4367,-9.4367,0,-9.0642,-9.0837,-9.1133,-9.1503,-9.1758,-9.1787,-9.2083,-9.2294,-9.2612,-9.2877,-9.3154,-9.3551,-9.3879,-9.413,-9.4466,-9.4647,-9.468,-9.4729,-9.4717,-9.4758,-9.4425,-9.4336,-9.4697,-9.4697,-9.4697,-9.4697,-9.4697,-9.4697,-9.0885,-9.1267,-9.1389,-9.1881,-9.2074,-9.2431,-9.2597,-9.2826,-9.3038,-9.3478,-9.3752,-9.3914,-9.4174,-9.453,-9.4833,-9.4899,-9.5018,-9.5064,-9.5133,-9.4817,-9.4781,-9.4747,-9.4664,-9.5088,-9.5089,-9.5442,-9.5445,-9.5448]},{"header":{"parameterUnit":"m.s-1","parameterCategory":1,"la1":30.2991,"la2":30.254,"lo1":-89.0895,"lo2":-89.0444,"dy":0.0017,"dx":0.0017,"nx":28,"ny":28,"refTime":"2024-02-03T03:00:00:Z","depth":0,"parameterNumber":3,"parameterNumberName":"V-component_of_WINDS"},"data":[0,0,0,0,0,0,0,0,0,0,0,0,0,0,0,0,0,0,0,0,0,0,0,0,0,0,0,0,0,0,0,0,0,0,0,0,0,0,0,0,0,0,0,0,0,0,0,0,0,0,0,0,0,0,0,0,0,0,-0.9638,-0.9634,0,-0.9297,-0.9293,-0.9289,-0.9092,-0.9092,-0.9091,-0.909,-0.874,-0.8731,-0.8723,0,0,0,0,0,0,0,0,0,0,0,0,0,-1.0118,-1.011,-0.9638,-0.9634,-0.963,-0.9297,-0.9293,-0.9288,-0.9092,-0.9092,-0.9091,-0.909,-0.8743,-0.8732,-0.8722,0,0,0,0,0,0,0,0,0,0,0,0,0,-0.9857,-1.0108,-0.9639,-0.9492,-0.9475,-0.9298,-0.9293,-0.9287,-0.9093,-0.9091,-0.909,-0.9089,-0.8746,-0.8733,-0.8721,-0.8663,0,0,-0.8681,-0.8675,0,0,0,0,0,0,0,0,-0.9872,-0.9839,-0.9518,-0.9502,-0.9483,-0.9236,-0.9333,-0.9078,-0.9093,-0.9238,-0.909,-0.9089,-0.8906,-0.888,-0.8818,-0.8647,-0.8632,-0.868,-0.8672,-0.8667,-0.8663,0,0,0,0,0,0,0,-0.989,-0.9853,-0.9503,-0.9514,-0.9492,-0.9442,-0.9404,-0.9284,-0.9082,-0.9225,-0.921,-0.9173,-0.8896,-0.8831,-0.8808,-0.8626,-0.868,-0.8669,-0.8661,-0.8656,-0.8387,-0.8388,0,0,0,0,0,0,-0.9932,-0.9869,-0.9514,-0.9493,-0.9679,-0.9435,-0.9392,-0.9316,-0.9083,-0.9046,-0.9174,-0.9165,-0.8854,-0.8824,-0.8795,-0.871,-0.8667,-0.8654,-0.8647,-0.8387,-0.8387,-0.8388,0,0,0,0,0,0,-0.9943,-0.9902,-0.9528,-0.9677,-0.9625,-0.9428,-0.9345,-0.931,-0.9245,-0.9044,-0.9007,-0.9145,-0.8852,-0.8813,-0.8697,-0.8695,-0.8649,-0.8637,-0.8386,-0.8387,-0.8388,-0.8541,0,0,0,0,0,0,-0.9958,-0.9907,-0.9884,-0.9678,-0.9618,-0.9436,-0.9344,-0.9304,-0.9223,-0.9208,-0.9007,-0.8972,-0.8848,-0.8717,-0.8684,-0.8676,-0.8627,-0.8385,-0.8386,-0.8388,-0.8535,-0.8547,-0.8557,0,0,0,0,0,-0.9976,-0.9941,-0.9884,-0.9842,-0.9585,-0.9436,-0.9402,-0.926,-0.9224,-0.9198,-0.9069,-0.8979,-0.8701,-0.8707,-0.8668,-0.8657,-0.8385,-0.8386,-0.8387,-0.853,-0.8545,-0.8557,0,0,0,0,0,0,-1.0152,-0.9912,-0.9845,-0.9743,-0.9612,-0.9404,-0.9367,-0.928,-0.9156,-0.9146,-0.8975,-0.8931,-0.883,-0.8731,-0.8742,-0.8587,-0.8533,-0.8527,-0.8655,-0.8667,-0.8678,-0.8703,-0.8616,0,0,0,0,0,-1.018,-1.008,-0.9874,-0.9804,-0.9742,-0.9566,-0.9496,-0.9398,-0.9254,-0.9198,-0.906,-0.8924,-0.8805,-0.8731,-0.8611,-0.8521,-0.8472,-0.8493,-0.8505,-0.8515,-0.8511,-0.8453,-0.8459,-0.8393,-0.8393,-0.8393,0,0,-1.0235,-1.0091,-1.0038,-0.9836,-0.9723,-0.9622,-0.9521,-0.9419,-0.9342,-0.9182,-0.9062,-0.8957,-0.8793,-0.8689,-0.8636,-0.8604,-0.8518,-0.8516,-0.8526,-0.8516,-0.8455,-0.8462,-0.8467,-0.8394,-0.8394,-0.8394,0,0,-1.0283,-1.0165,-1.0092,-0.9981,-0.981,-0.9693,-0.9677,-0.948,-0.9404,-0.9282,-0.9159,-0.9065,-0.8865,-0.8753,-0.867,-0.8675,-0.8587,-0.8641,-0.8698,-0.8644,-0.8649,-0.8653,-0.8652,-0.8655,-0.8638,-0.8638,-0.8639,0,-1.0373,-1.0217,-1.0066,-0.997,-0.9884,-0.9735,-0.9659,-0.9558,-0.9358,-0.9301,-0.9268,-0.9013,-0.8892,-0.8758,-0.876,-0.8698,-0.8672,-0.8662,-0.8661,-0.8663,-0.8664,-0.8662,-0.8662,-0.8646,-0.8645,-0.8644,-0.8644,0,-1.0334,-1.0228,-1.019,-0.9999,-0.9909,-0.9824,-0.966,-0.9586,-0.9496,-0.9383,-0.9259,-0.9109,-0.8955,-0.8917,-0.8828,-0.8769,-0.8754,-0.8694,-0.8635,-0.8681,-0.8675,-0.8673,-0.8657,-0.8654,-0.8652,-0.865,0,0,-1.0484,-1.0211,-1.0199,-1.011,-0.991,-0.9825,-0.9733,-0.9582,-0.9521,-0.9388,-0.9305,-0.9139,-0.9081,-0.8987,-0.8884,-0.8837,-0.8847,-0.878,-0.8774,-0.8796,-0.8771,-0.8817,-0.8819,-0.8788,-0.8787,-0.8787,-0.8784,0,-1.0502,-1.0329,-1.0191,-1.0069,-0.9968,-0.9824,-0.9744,-0.9612,-0.9504,-0.9401,-0.9281,-0.9165,-0.9098,-0.904,-0.8987,-0.8858,-0.884,-0.8856,-0.8707,-0.8704,-0.8751,-0.8816,-0.8864,-0.8869,-0.8781,-0.8781,-0.8781,0,-1.0499,-1.0371,-1.024,-1.0049,-1.0001,-0.9931,-0.9781,-0.9685,-0.9533,-0.9457,-0.9352,-0.9244,-0.9139,-0.9093,-0.8944,-0.8958,-0.8889,-0.8816,-0.8813,-0.8792,-0.8744,-0.8795,-0.8867,-0.8867,-0.8776,-0.8777,-0.8777,0,-1.0619,-1.0413,-1.0307,-1.0236,-1.0011,-0.9965,-0.9869,-0.9715,-0.9633,-0.9502,-0.9447,-0.9306,-0.9228,-0.9121,-0.8977,-0.8957,-0.8843,-0.8785,-0.8775,-0.8779,-0.8756,-0.8759,-0.8816,-0.8716,-0.8716,-0.8716,-0.8716,0,-1.0652,-1.0577,-1.0358,-1.0293,-1.0204,-1.0045,-0.9961,-0.9853,-0.9717,-0.9627,-0.9495,-0.9414,-0.923,-0.9126,-0.9014,-0.8906,-0.8873,-0.8807,-0.8778,-0.8817,-0.8826,-0.8769,-0.8764,-0.8716,-0.8716,-0.8716,-0.8716,0,-1.077,-1.0621,-1.0495,-1.0293,-1.024,-1.0184,-1.0009,-0.994,-0.9824,-0.9712,-0.9677,-0.9495,-0.9365,-0.9212,-0.9033,-0.8957,-0.8859,-0.8816,-0.891,-0.8893,-0.8891,-0.8892,-0.8912,-0.8905,-0.8813,-0.8814,-0.8815,0,-1.08,-1.0738,-1.0529,-1.046,-1.0368,-1.0258,-1.0173,-1.0014,-0.9931,-0.9752,-0.9704,-0.9565,-0.9444,-0.9244,-0.9095,-0.8957,-0.8908,-0.8925,-0.8886,-0.8928,-0.8905,-0.891,-0.8902,-0.8935,-0.8936,-0.8938,-0.8939,0,-1.0868,-1.0797,-1.068,-1.0537,-1.044,-1.032,-1.0194,-1.0145,-0.996,-0.9873,-0.9739,-0.9646,-0.9462,-0.9325,-0.9168,-0.9067,-0.8972,-0.8953,-0.8942,-0.8981,-0.9037,-0.9004,-0.8936,-0.8952,-0.8951,-0.895,-0.8949,-0.8949,-1.094,-1.0878,-1.0721,-1.0595,-1.0484,-1.0369,-1.0293,-1.0168,-1.0054,-0.9892,-0.9805,-0.9673,-0.9519,-0.9298,-0.9201,-0.9094,-0.9061,-0.9047,-0.9043,-0.9041,-0.9052,-0.9057,-0.9065,-0.9064,-0.9064,-0.9063,-0.9063,0,-1.0999,-1.0891,-1.0777,-1.0605,-1.0505,-1.0425,-1.0281,-1.0203,-1.0088,-0.9953,-0.9838,-0.9683,-0.9548,-0.9389,-0.9244,-0.9189,-0.9141,-0.9156,-0.9157,-0.9135,-0.9091,-0.9113,-0.9197,-0.9197,-0.9197,-0.9197,-0.9197,-0.9197,-1.1018,-1.0908,-1.0819,-1.0652,-1.0543,-1.0413,-1.0337,-1.023,-1.0121,-0.9954,-0.9842,-0.9739,-0.9594,-0.9437,-0.9309,-0.9266,-0.9217,-0.9245,-0.9188,-0.915,-0.9138,-0.9127,-0.9147,-0.9236,-0.9236,-0.924,-0.924,-0.924]}]]